www.pogodaiklimat.ru

Погода и климат >> Архив погоды >> Великобритания >> Чартерхолл


ПОГОДА в Чартерхолле

  • Прогноз погоды в Чартерхолле
  • Монитор погоды в Чартерхолле

АРХИВ ПОГОДЫ в Чартерхолле

Время (UTC), дата Ветер
(напр.,м/с)
 
Видим.   Явления Облачность Т
(С)
Тd
(С)
f
(%)
Тe
(С)
Тes
(С)
Комфортность P
(гПа)
Po
(гПа)
Тmin
(С)
Tmax
(С)
R
(мм)
R24
(мм)
S
(см)
22 8.06 ЮЗ 2 50 км н/о +9.7 +8.6 93 +8 +8 1012.3 998.7
23 8.06 ЮЗ 3 50 км н/о +9.5 +8.6 94 +7 +7 1012.5 998.9
00 9.06 З 3 45 км н/о +9.3 +8.4 94 +7 +7 1012.8 999.1 0.0
01 9.06 ЮЗ 3 50 км н/о +9.4 +8.5 94 +7 +7 1013.0 999.4
02 9.06 ЮЗ 3 50 км н/о +8.9 +7.7 92 +7 +7 1013.1 999.4
03 9.06 ЮЗ 3 45 км н/о +8.2 +7.4 95 +5 +5 1013.2 999.5
04 9.06 ЮЗ 2 50 км н/о +7.9 +7.0 94 +6 +6 1013.7 1000.0
05 9.06 Ю 2 50 км н/о +9.0 +8.4 96 +8 +8 1014.2 1000.5
06 9.06 ЮЗ 2 50 км н/о +9.7 +8.4 92 +8 +8 1014.5 1000.9 +7.5 0.0
07 9.06 ЮЗ 3 50 км н/о +10.5 +8.8 89 +8 +8 1014.9 1001.3
08 9.06 ЮЗ 5 50 км н/о +12.9 +9.2 78 +11 +11 1015.4 1001.9
09 9.06 ЮЗ 5 50 км в посл. час дождь н/о +12.8 +8.1 73 +11 +11 1015.5 1002.1
10 9.06 ЮЗ 6 40 км н/о +13.4 +7.8 69 +11 +11 1015.8 1002.3
11 9.06 ЮЗ 8 45 км н/о +14.9 +8.1 64 +13 +13 1015.8 1002.4
12 9.06 ЮЗ 8 50 км н/о +15.0 +8.4 65 +13 +13 1016.0 1002.7 0.0
13 9.06 ЮЗ 7 45 км н/о +13.8 +7.5 66 +12 +12 1016.2 1002.7
14 9.06 ЮЗ 8 50 км в посл. час дождь н/о +14.4 +8.7 69 +12 +12 1016.3 1002.9
15 9.06 ЮЗ 7 40 км в посл. час дождь н/о +14.1 +8.5 69 +12 +12 1016.1 1002.7
16 9.06 ЮЗ 7 40 км н/о +15.3 +8.2 63 +14 +14 1016.3 1003.0
17 9.06 З 6 50 км н/о +14.7 +8.3 65 +13 +13 1016.4 1003.0
18 9.06 ЮЗ 5 50 км н/о +13.6 +7.8 68 +12 +12 1016.7 1003.2 +15.5 0.0
19 9.06 З 4 50 км н/о +12.5 +7.5 72 +11 +11 1017.1 1003.6
20 9.06 З 2 50 км н/о +10.9 +7.6 80 +10 +10 1017.5 1003.9
21 9.06 З 2 50 км н/о +9.1 +6.7 85 +8 +8 1018.1 1004.4
22 9.06 ЮЗ 3 50 км н/о +9.3 +7.6 89 +7 +7 1018.3 1004.6
23 9.06 ЮЗ 2 45 км н/о +8.1 +6.8 91 +6 +6 1018.4 1004.7
00 10.06 ЮЗ 2 50 км н/о +7.5 +6.5 93 +5 +5 1018.6 1004.8
01 10.06 З 2 50 км н/о +6.3 +5.5 95 +4 +4 1018.6 1004.8
02 10.06 ЮЗ 2 45 км н/о +6.0 +5.5 97 +4 +4 1018.5 1004.6
03 10.06 ЮЗ 3 50 км н/о +5.0 +4.4 96 +2 +2 1018.5 1004.6
04 10.06 З 3 50 км н/о +4.9 +4.4 97 +1 +1 1018.6 1004.7
05 10.06 Ю 2 45 км н/о +5.7 +5.0 95 +4 +4 1018.9 1005.0
06 10.06 ЮЗ 2 50 км н/о +8.2 +7.5 95 +6 +6 1018.8 1005.0 +4.6
07 10.06 Ю 3 35 км н/о +9.3 +7.8 90 +7 +7 1019.0 1005.3
08 10.06 Ю 2 45 км н/о +12.5 +9.4 81 +12 +12 1019.0 1005.4
09 10.06 ЮВ 2 50 км н/о +14.4 +9.5 72 +14 +14 1019.0 1005.6
10 10.06 С 3 4200 м сильн. ливневой дождь н/о +12.4 +8.3 76 +11 +11 1019.5 1005.9
11 10.06 С 2 50 км слаб. дождь н/о +13.6 +10.2 80 +13 +13 1019.4 1005.9
12 10.06 СВ 4 50 км в посл. час дождь н/о +14.7 +9.3 70 +14 +14 1019.2 1005.8 2
13 10.06 СВ 4 50 км н/о +15.8 +10.6 71 +15 +15 1019.4 1006.0
14 10.06 СВ 6 30 км н/о +14.6 +9.4 71 +13 +13 1019.4 1005.9
15 10.06 СВ 6 35 км н/о +13.8 +9.9 77 +12 +12 1019.6 1006.1
16 10.06 СВ 5 45 км н/о +13.2 +9.2 77 +11 +11 1020.2 1006.7
17 10.06 СВ 6 35 км н/о +12.8 +8.8 77 +10 +10 1020.4 1006.9
18 10.06 СВ 6 50 км н/о +11.7 +8.6 81 +9 +9 1021.0 1007.4 +16.1 2
19 10.06 СВ 5 50 км н/о +11.1 +8.6 85 +8 +8 1021.3 1007.7
20 10.06 СВ 4 50 км н/о +10.3 +8.2 87 +8 +8 1021.8 1008.1
21 10.06 С 3 50 км н/о +9.4 +8.1 92 +7 +7 1022.4 1008.7
22 10.06 С 3 50 км н/о +8.2 +6.7 90 +5 +5 1022.2 1008.4
23 10.06 С 3 45 км н/о +8.0 +6.6 91 +5 +5 1022.0 1008.2
00 11.06 С 3 50 км н/о +7.6 +6.4 92 +5 +5 1022.5 1008.7
01 11.06 С 3 50 км н/о +7.3 +6.1 92 +4 +4 1022.2 1008.3
02 11.06 С 3 50 км н/о +7.4 +6.1 91 +4 +4 1022.2 1008.4
03 11.06 С 2 50 км н/о +7.1 +6.0 93 +5 +5 1022.0 1008.2
04 11.06 СВ 2 50 км н/о +6.9 +5.9 93 +4 +4 1022.1 1008.2
05 11.06 СВ 3 50 км н/о +8.0 +6.6 91 +5 +5 1022.4 1008.6
06 11.06 СВ 5 50 км н/о +9.1 +6.8 86 +6 +6 1022.3 1008.6 +6.1
07 11.06 С 5 50 км н/о +9.2 +6.6 84 +6 +6 1022.3 1008.6
08 11.06 С 6 6000 м морось с дождем н/о +9.0 +7.0 87 +5 +5 1021.9 1008.2
09 11.06 С 8 50 км в посл. час дождь н/о +10.7 +5.5 70 +7 +7 1021.9 1008.2
10 11.06 С 8-14
{14}
50 км н/о +10.0 +4.7 70 +6 +6 1021.8 1008.1
11 11.06 С 7 45 км н/о +11.1 +6.3 72 +8 +8 1022.0 1008.4
12 11.06 СВ 6 50 км н/о +11.2 +5.6 68 +8 +8 1022.1 1008.4 0.0
13 11.06 СВ 7 45 км н/о +11.8 +7.1 73 +9 +9 1021.5 1007.9
14 11.06 СВ 7 45 км н/о +11.5 +6.9 73 +8 +8 1021.4 1007.8
15 11.06 С 7 50 км н/о +11.8 +7.4 74 +9 +9 1021.4 1007.8
16 11.06 СВ 6 50 км н/о +11.3 +7.3 76 +8 +8 1021.2 1007.6
17 11.06 СВ 7 50 км н/о +11.4 +7.0 74 +8 +8 1020.9 1007.2
18 11.06 СВ 6 50 км н/о +11.2 +7.2 76 +8 +8 1020.5 1006.8 +12.7 0.0
19 11.06 С 6 45 км н/о +11.3 +7.5 77 +8 +8 1020.3 1006.7
20 11.06 С 5 50 км н/о +9.9 +7.1 83 +7 +7 1020.5 1006.8
21 11.06 С 5 50 км н/о +9.4 +7.2 86 +6 +6 1020.6 1006.9
22 11.06 С 5 50 км н/о +9.4 +7.3 87 +6 +6 1020.4 1006.6
23 11.06 С 7 50 км н/о +9.6 +7.3 86 +6 +6 1019.8 1006.1
00 12.06 С 7 50 км н/о +9.5 +6.8 83 +6 +6 1019.5 1005.8
01 12.06 С 7 50 км н/о +9.4 +6.7 83 +5 +5 1018.9 1005.2
02 12.06 С 7 45 км н/о +9.6 +7.2 85 +6 +6 1018.0 1004.3
03 12.06 С 9
{14}
24 км н/о +9.7 +7.1 84 +5 +5 1016.9 1003.3
04 12.06 С 9
{14}
18 км слаб. ливневой дождь н/о +9.4 +7.3 87 +5 +5 1017.0 1003.4
05 12.06 С 9
{14}
17 км слаб. ливневой дождь н/о +9.3 +7.5 89 +5 +5 1017.0 1003.3
06 12.06 С 10-15
{18}
13 км в посл. час дождь н/о +9.2 +7.6 90 +4 +4 1016.7 1003.0 +9.0 0.0
07 12.06 С 10-16
{17}
11 км слаб. морось н/о +8.9 +7.8 93 +4 +4 1016.0 1002.3
08 12.06 С 10-16
{19}
10 км слаб. морось н/о +9.1 +8.0 93 +4 +4 1015.4 1001.8
09 12.06 С 10-16
{17}
10 км в посл. час морось н/о +8.9 +7.9 93 +4 +4 1016.1 1002.4
10 12.06 С 9-15
{17}
6000 м дождь н/о +9.2 +8.3 94 +4 +4 1015.7 1002.0
11 12.06 С 10
{16}
4700 м дождь н/о +9.3 +8.4 94 +4 +4 1015.4 1001.8
12 12.06 С 9-14
{15}
8000 м слаб. морось с дождем н/о +9.6 +8.7 94 +5 +5 1014.5 1000.9 4
13 12.06 С 10
{17}
5000 м дождь н/о +9.7 +9.0 95 +5 +5 1014.1 1000.5
14 12.06 С 10-16
{17}
5000 м дождь н/о +9.9 +9.1 95 +5 +5 1013.6 1000.0
15 12.06 С 9-14
{15}
5000 м слаб. морось н/о +10.1 +9.4 95 +6 +6 1013.2 999.6
16 12.06 С 9
{16}
5000 м слаб. морось с дождем н/о +10.1 +9.5 96 +6 +6 1012.8 999.2
17 12.06 С 9
{14}
8000 м слаб. морось н/о +10.2 +9.6 96 +6 +6 1012.6 999.0
18 12.06 С 9
{15}
9000 м в посл. час дождь н/о +10.1 +9.6 97 +6 +6 1012.2 998.6 +10.2 7
19 12.06 С 8
{13}
12 км в посл. час дождь н/о +10.1 +9.7 97 +6 +6 1012.3 998.7
20 12.06 С 8
{14}
6000 м в посл. час дождь н/о +10.2 +9.7 97 +6 +6 1011.7 998.2
21 12.06 С 8
{14}
19 км дождь н/о +10.2 +9.8 97 +6 +6 1011.8 998.2
22 12.06 С 7
{14}
9000 м слаб. дождь н/о +9.8 +9.2 96 +6 +6 1011.1 997.5
23 12.06 С 10-15
{15}
6000 м слаб. дождь н/о +9.2 +8.6 96 +4 +4 1010.3 996.7
00 13.06 С 9-15
{15}
7000 м дождь н/о +8.9 +8.2 95 +4 +4 1009.6 996.0 3
01 13.06 С 9-15
{17}
5000 м дождь н/о +8.8 +8.0 95 +4 +4 1009.0 995.4
02 13.06 С 10-16
{16}
8000 м дождь н/о +8.5 +7.7 95 +3 +3 1008.1 994.5
03 13.06 С 9
{15}
7000 м дождь н/о +8.3 +7.5 95 +3 +3 1007.0 993.4
04 13.06 С 10
{15}
8000 м дождь н/о +8.1 +7.3 95 +3 +3 1006.4 992.8
05 13.06 С 8-13
{16}
7000 м дождь н/о +7.8 +7.0 95 +3 +3 1006.1 992.5
06 13.06 С 8-13
{14}
9000 м дождь н/о +7.5 +6.6 94 +2 +2 1005.7 992.1 +7.4 25
07 13.06 С 7
{14}
8000 м дождь н/о +7.3 +6.4 94 +2 +2 1005.3 991.7
08 13.06 С 7-12
{13}
14 км дождь н/о +7.2 +6.3 94 +2 +2 1005.0 991.4
09 13.06 С 6 17 км дождь н/о +7.2 +6.2 93 +3 +3 1004.7 991.1
10 13.06 С 6 17 км дождь н/о +7.2 +6.1 93 +3 +3 1004.3 990.7
11 13.06 С 5 26 км дождь н/о +7.8 +6.7 93 +4 +4 1003.8 990.3
12 13.06 С 7 50 км слаб. дождь н/о +8.0 +6.5 90 +3 +3 1003.3 989.7 14
13 13.06 С 5 50 км слаб. дождь н/о +8.3 +6.1 86 +5 +5 1002.9 989.4
14 13.06 С 4 45 км слаб. морось с дождем н/о +9.1 +6.6 84 +6 +6 1002.6 989.1
15 13.06 СЗ 3 26 км слаб. морось с дождем н/о +8.8 +6.2 84 +6 +6 1002.5 989.0
16 13.06 СЗ 3 30 км слаб. дождь н/о +9.0 +6.9 87 +7 +7 1002.3 988.8
17 13.06 СЗ 2 25 км слаб. дождь н/о +9.3 +7.4 88 +8 +8 1002.0 988.5
18 13.06 З 1 45 км слаб. дождь н/о +9.5 +7.2 86 +9 +9 1002.1 988.6 +9.5 14
19 13.06 ЮЗ 2 50 км слаб. морось с дождем н/о +9.2 +7.0 86 +8 +8 1002.1 988.6
20 13.06 Ю 2 50 км в посл. час дождь н/о +8.6 +7.5 93 +7 +7 1002.0 988.5
21 13.06 Ю 2 50 км н/о +8.4 +7.5 94 +7 +7 1002.6 989.1
22 13.06 ЮЗ 3 50 км н/о +8.2 +7.5 95 +5 +5 1003.0 989.4
23 13.06 ЮЗ 2 50 км н/о +8.1 +7.4 95 +6 +6 1003.2 989.6
00 14.06 Ю 2 50 км н/о +7.9 +7.3 96 +6 +6 1003.3 989.8 0.2
01 14.06 ЮЗ 3 50 км н/о +7.5 +6.9 96 +4 +4 1003.0 989.4
02 14.06 Ю 3 50 км н/о +7.2 +6.5 95 +4 +4 1003.0 989.4
03 14.06 ЮЗ 2 50 км н/о +7.2 +6.6 96 +5 +5 1003.1 989.5
04 14.06 Ю 2 30 км н/о +7.1 +6.6 97 +5 +5 1003.3 989.7
05 14.06 ЮЗ 2 40 км н/о +7.4 +6.8 96 +6 +6 1003.7 990.1
06 14.06 Ю 3 11 км в посл. час дождь н/о +7.7 +6.9 95 +5 +5 1004.1 990.6 +7.0 0.2
07 14.06 Ю 3 50 км в посл. час дождь н/о +8.7 +7.5 92 +6 +6 1004.3 990.8
08 14.06 Ю 4 50 км н/о +12.1 +9.4 84 +10 +10 1004.7 991.3
09 14.06 Ю 4 50 км н/о +11.2 +7.5 78 +9 +9 1005.2 991.8
10 14.06 Ю 4 50 км н/о +11.0 +6.8 75 +9 +9 1005.4 991.9
11 14.06 Ю 4 50 км н/о +10.7 +7.2 79 +8 +8 1005.8 992.3
12 14.06 Ю 5 45 км н/о +12.6 +7.9 73 +11 +11 1005.8 992.4 0.2
13 14.06 З 3 45 км н/о +11.0 +7.3 78 +9 +9 1006.3 992.9
14 14.06 ЮЗ 3 50 км в посл. час дождь н/о +12.2 +7.1 71 +11 +11 1006.4 993.0
15 14.06 Ю 4 40 км н/о +14.3 +8.8 69 +13 +13 1006.3 993.0
16 14.06 Ю 5 50 км н/о +14.6 +6.2 57 +13 +13 1006.3 993.0
17 14.06 Ю 4 45 км н/о +14.7 +8.4 66 +14 +14 1006.8 993.6
18 14.06 ЮЗ 4 50 км н/о +14.7 +8.2 65 +14 +14 1007.3 994.0 +15.5 0.2
19 14.06 ЮЗ 4 35 км н/о +14.1 +8.6 69 +13 +13 1007.6 994.3
20 14.06 ЮЗ 2 50 км н/о +13.7 +8.8 72 +14 +14 1007.8 994.5
21 14.06 ЮВ 2 50 км н/о +11.5 +8.2 80 +11 +11 1008.8 995.4
22 14.06 СВ 2 27 км н/о +10.5 +7.6 82 +9 +9 1009.0 995.5
23 14.06 СВ 2 50 км в посл. час дождь н/о +10.2 +7.8 85 +9 +9 1009.3 995.7
00 15.06 С 3 50 км н/о +9.5 +7.6 88 +7 +7 1009.1 995.6 0.0
01 15.06 СВ 3 50 км н/о +9.4 +7.7 89 +7 +7 1009.0 995.5
02 15.06 С 3 50 км н/о +9.4 +8.1 92 +7 +7 1008.9 995.3
03 15.06 С 2 50 км н/о +9.2 +8.1 93 +8 +8 1008.6 995.0
04 15.06 Ю 2 29 км н/о +8.6 +7.9 95 +7 +7 1008.4 994.8
05 15.06 С 1 16 км н/о +8.4 +7.6 95 +7 +7 1008.5 994.9
06 15.06 СВ 2 25 км н/о +10.6 +9.8 95 +9 +9 1008.8 995.3 +8.0 0.0
07 15.06 СВ 1 50 км н/о +12.8 +10.2 84 +13 +13 1008.8 995.4
08 15.06 СВ 2 35 км н/о +13.4 +10.0 80 +13 +13 1008.5 995.1
09 15.06 В 3 40 км н/о +16.0 +10.6 70 +16 +16 1008.5 995.3
10 15.06 ЮВ 3 40 км н/о +16.5 +10.8 69 +16 +16 1008.2 995.0
11 15.06 ЮВ 5 50 км н/о +15.1 +9.9 71 +14 +14 1008.2 995.0
12 15.06 В 3 50 км н/о +15.4 +10.9 75 +15 +15 1008.1 994.8
13 15.06 Ю 7 40 км н/о +15.1 +9.2 68 +13 +13 1008.4 995.1
14 15.06 Ю 5 50 км н/о +13.9 +10.2 78 +12 +12 1008.7 995.4
15 15.06 ЮВ 4 40 км н/о +16.0 +9.9 67 +15 +15 1008.3 995.1
16 15.06 Ю 1 40 км в посл. час дождь н/о +14.5 +11.8 84 +15 +15 1008.2 994.9
17 15.06 Ю 2 50 км в посл. час дождь н/о +12.9 +11.9 94 +12 +12 1008.8 995.4
18 15.06 ЮЗ 3 50 км слаб. ливневой дождь н/о +12.0 +9.3 84 +10 +10 1008.7 995.3 +17.0 6
19 15.06 Ю 1 45 км в посл. час дождь н/о +12.3 +10.7 90 +12 +12 1008.4 994.9
20 15.06 Ю 1 40 км в посл. час дождь н/о +11.8 +10.5 92 +12 +12 1008.7 995.3
21 15.06 ЮЗ 2 50 км в посл. час дождь н/о +10.9 +8.5 85 +10 +10 1009.1 995.6
22 15.06 ЮЗ 3 50 км н/о +9.5 +6.3 80 +7 +7 1009.5 995.9

 

Местоположение метеостанции Чартерхолл (Великобритания): широта 55.70 долгота -2.38 высота над уровнем моря 111 м.

В архиве по умолчанию представлена погода в Чартерхолле за последнюю неделю. Архивные данные за месяц целиком и за предыдущие месяцы, начиная с января 2011 года, Вы можете получить, выбрав интересующий диапазон дат из раскрывающегося списка и нажав кнопку "Ввод!".


*Определитесь, кто Вы:
робот инопланетянин человек

Внимание! Время в таблицах - всемирное. Для получения местного времени необходимо прибавить поправку, которая равна 0 ч.

Смотрите также архив погоды в соседних городах и на ближайших метеорологических станциях:

Погода в Лагере Redesdale (Великобритания) (47 км)
Погода в Боулмере (Великобритания) (58 км)
Погода в Эдинбурге (Великобритания) (66 км)
Погода в Эскдейлмьюире (Великобритания) (67 км)
Погода в Спадедэме (Великобритания) (73 км)
Погода в Альбермарле (Великобритания) (82 км)
Погода в Леучарсе (Великобритания) (84 км)
Погода в Друмалбине (Великобритания) (85 км)
Погода в Карлайле (Великобритания) (93 км)
Погода в Страталлане (Великобритания) (109 км)

Пояснения к столбцам:

Ветер - указаны скорость ветра в м/с - средняя за 10 мин, порывы в срок и между сроками (в фигурных скобках) и направление, откуда дует ветер: С - северный, СВ - северо-восточный, В - восточный, ЮВ - юго-восточный, Ю - южный, ЮЗ - юго-западный, З - западный, СЗ - северо-западный.
Видимость - горизонтальная дальность видимости в метрах или километрах. При видимости от 1 до 10 км при отсутствии осадков обычно наблюдается дымка, при ухудшении видимости до 1 км и менее - туман. В сухую погоду видимость может ухудшаться дымом, пылью или мглою.
Явления - указаны атмосферные явления, наблюдавшиеся в срок или в последний час перед сроком; фигурными скобками обозначены явления, наблюдавшиеся между сроками (за 1-3 часа до срока); квадратными скобками обозначены град или гололедные отложения с указанием их диаметра в мм.
Облачность - указаны через наклонную черту общая и нижняя облачность в баллах и высота нижней границы облаков в метрах; квадратными скобками обозначены формы облаков: Ci - перистые, Cs - перисто-слоистые, Cc - перисто-кучевые, Ac - высококучевые, As - высокослоистые, Sc - слоисто-кучевые, Ns - слоисто-дождевые, Cu - кучевые, Cb - кучево-дождевые. Подробнее классификацию облаков см. в Атласе облаков (PDF).
T - Температура воздуха - температура, измеренная на высоте 2 м над землей.
Td - Температура точки росы - температура, при понижении до которой содержащийся в воздухе водяной пар достигнет насыщения.
f - Относительная влажность воздуха - влажноcть воздуха, измеренная на высоте 2 м над землей.
Te - Эффективная температура - температура, которую ощущает одетый по сезону человек в тени. Характеристика душности погоды. При расчете учитывается влияние влажности воздуха и скорости ветра на теплоощущения человека.
Tes - Эффективная температура на солнце - температура, которую ощущает человек, с поправкой на солнечный нагрев. Характеристика знойности погоды. Зависит от высоты солнца над горизонтом, облачности и скорости ветра. Ночью, в пасмурную погоду, а также при ветре 12 м/с и более поправка равна нулю.
P - Атмосферное давление - приведенное к уровню моря атмосферное давление.
Po - Атмосферное давление - измеренное на уровне метеостанции атмосферное давление.
Tmin - Минимальная температура - минимум температуры воздуха на высоте 2 м над землей.
Tmax - Максимальная температура - максимум температуры воздуха на высоте 2 м над землей.
R - Количество осадков - Количество выпавших осадков за период времени, мм. При наведении курсора мыши на число - период времени, за который выпало указанное количество осадков.
R24 - Количество осадков - Количество выпавших осадков за 24 часа, мм.
S - Снежный покров - Высота снежного покрова, см. При наведении курсора мыши на число - состояние снежного покрова и степень покрытия местности в баллах.